www.pogodaiklimat.ru

Погода и климат >> Архив погоды >> Россия >> Калмыкия >> Малые Дербеты


ПОГОДА в Малых Дербетах

  • Прогноз погоды в Малых Дербетах
  • Монитор погоды в Малых Дербетах
  • Климат города

АРХИВ ПОГОДЫ в Малых Дербетах

Время (UTC), дата Ветер
(напр.,м/с)
 
Видим.   Явления Облачность Т
(С)
Тd
(С)
f
(%)
Тe
(С)
Тes
(С)
Комфортность P
(гПа)
Po
(гПа)
Тmin
(С)
Tmax
(С)
R
(мм)
S
(см)
03 16.03 С 1 20 км 9/0
[Ac As]
+2.3 -3.4 66 +1 +1 1015.8 1014.7 +2.3
06 16.03 В 2 20 км 10/0
[Ci sp]
+4.6 -3.1 57 +2 +6 1015.4 1014.3
09 16.03 В 4 20 км 10/0
[Ac und]
+8.5 -2.8 45 +6 +8 1013.9 1012.8
12 16.03 ЮВ 4 20 км 10/1 600 м
[Cu hum Cs]
+11.1 -0.9 43 +9 +12 1012.4 1011.3
15 16.03 В 3 20 км 9/0
[Ac As]
+7.9 -0.3 56 +6 +6 1013.0 1011.9 +11.2
18 16.03 В 2 20 км 9/9 500 м
[Sc]
+5.3 +2.6 83 +3 +3 1013.3 1012.2
21 16.03 С 1 20 км 9/9 500 м
[Sc]
+4.7 +2.6 86 +3 +3 1012.9 1011.7
00 17.03 З 1 20 км {ливн. осадки} 9/0
[As op]
+2.8 +1.7 92 +1 +1 1012.9 1011.8
03 17.03 З 1 20 км ясно +0.2 -0.9 92 -2 -2 1013.6 1012.4 0.0
06 17.03 СВ 1 1000 м дымка {туман} 9/9 500 м
[Sc]
+3.5 +3.3 99 +2 +2 1014.6 1013.5 -0.4
09 17.03 ЮЗ 3 20 км 8/8 600 м
[Cu med, cong]
+9.9 +2.1 58 +8 +10 1014.4 1013.3
12 17.03 З 3 20 км 8/8 600 м
[Cu med, cong]
+10.6 +2.3 56 +9 +10 1014.4 1013.3
15 17.03 ЮЗ 1 20 км 8/0
[Ac lent Ci sp]
+8.5 +2.1 64 +8 +8 1014.9 1013.8 +11.1
18 17.03 З 1 20 км 10/0
[Ac und]
+6.5 +2.7 77 +6 +6 1015.3 1014.2
21 17.03 ЮВ 1 20 км 10/0
[Ac und]
+4.3 +1.6 83 +3 +3 1015.0 1013.9
00 18.03 штиль 0 20 км 10/0
[Ci fib]
+2.6 +0.8 88 +2 +2 1015.2 1014.0
03 18.03 штиль 0 4000 м дымка 4/0
[Ci fib]
-1.4 -2.0 96 -3 -3 1015.4 1014.3 -1.4
06 18.03 ЮВ 1 20 км 3/0
[Ci fib]
+6.1 +2.5 78 +5 +11 1015.9 1014.8
09 18.03 ЮВ 3 20 км 10/3 600 м
[Cu med, cong Ci fib]
+12.4 +2.3 50 +11 +16 1014.7 1013.6
12 18.03 ЮВ 3 20 км 10/6 600 м
[Cu med, cong Ci fib]
+14.4 +0.4 38 +14 +15 1013.0 1011.9
15 18.03 В 2 20 км 9/0
[Ac As]
+11.0 +2.0 54 +10 +10 1013.2 1012.1 +14.5
18 18.03 ЮВ 2 20 км ясно +5.6 +1.3 74 +3 +3 1014.0 1012.9
21 18.03 ЮВ 3 20 км 8/0
[Cs]
+4.3 +1.8 84 +1 +1 1013.8 1012.7
00 19.03 ЮВ 2 20 км 10/0
[Ci sp]
+2.4 +1.0 90 -1 -1 1013.5 1012.3
03 19.03 ЮВ 3 4000 м дымка 10/0
[Ac und]
+1.5 +0.7 94 -3 -3 1013.1 1012.0 +1.2
06 19.03 ЮВ 5 20 км 9/0
[Ac As]
+3.8 +1.9 87 -1 -0 1014.0 1012.9
09 19.03 ЮВ 4 20 км 9/9 540 м
[Sc]
+6.2 +2.3 76 +3 +3 1013.1 1012.0
12 19.03 В 4 20 км 9/0
[Ac und]
+8.2 +2.0 65 +5 +7 1011.9 1010.8
15 19.03 ЮВ 3 20 км 9/0
[Ac As]
+6.2 +1.7 73 +3 +3 1012.1 1011.0 +8.5
18 19.03 В 3 20 км 9/0
[Ac As]
+4.1 +1.0 80 +1 +1 1011.5 1010.4
21 19.03 ЮВ 3 20 км 10/0
[Cs]
+2.4 +0.4 87 -2 -2 1011.1 1010.0
00 20.03 В 1 20 км 9/9 570 м
[Sc]
+3.3 +1.5 88 +2 +2 1010.0 1008.9
03 20.03 В 1 20 км 10/10 480 м
[St]
+3.3 +1.3 87 +2 +2 1009.5 1008.4 +2.1
06 20.03 В 4 20 км 10/10 450 м
[St]
+5.7 +3.8 88 +2 +2 1009.6 1008.5
09 20.03 В 5 20 км 10/0
[As trans]
+7.2 +2.6 73 +3 +6 1009.2 1008.1
12 20.03 В 4 20 км 10/5 600 м
[Sc As trans]
+10.5 +2.6 58 +8 +9 1008.5 1007.4
15 20.03 СЗ 1 20 км 9/9 570 м
[Sc]
+9.5 +3.7 67 +9 +9 1009.2 1008.1 +10.7
18 20.03 СЗ 1 20 км 9/9 500 м
[Sc]
+8.2 +3.4 72 +8 +8 1010.1 1009.0
21 20.03 С 2 20 км 9/9 500 м
[Sc]
+7.7 +3.4 74 +6 +6 1009.6 1008.5
00 21.03 СЗ 2 20 км 10/10 480 м
[St]
+6.4 +3.4 81 +4 +4 1009.6 1008.5
03 21.03 С 2 20 км 10/10 450 м
[St]
+4.6 +1.7 81 +2 +2 1010.5 1009.4 +4.6
06 21.03 С 3 20 км 9/9 500 м
[Sc]
+3.8 +0.6 80 0 +1 1011.1 1010.0 +3.7
09 21.03 СЗ 3 20 км 9/0
[Ac As]
+4.0 -0.0 75 0 +4 1011.3 1010.2
12 21.03 СЗ 4 10 км слабый дождь 10/0 540 м
[As op]
+2.5 -0.5 81 -2 -2 1011.2 1010.1
15 21.03 СЗ 2 1000 м снег {дождь} 10/0 360 м
[As op]
+0.3 -0.5 94 -3 -3 1011.7 1010.6 +4.9 2
18 21.03 С 3 1000 м снег 10/0 330 м
[As op]
-0.3 -1.1 94 -5 -5 1011.5 1010.4
21 21.03 СЗ 3 1000 м снег [диам. отлож. мокр. снега 4 мм] 10/0 400 м
[As op]
-0.5 -1.3 94 -5 -5 1011.8 1010.7
00 22.03 СЗ 4 20 км {снег} 9/9 500 м
[Sc]
-0.3 -1.5 92 -6 -6 1011.6 1010.5
03 22.03 СЗ 5
{10}
20 км [диам. отлож. мокр. снега 4 мм] 9/9 500 м
[Sc]
-0.7 -2.4 88 -7 -7 1012.8 1011.7 -0.9 4 0
06 22.03 С 5
{11}
4000 м слабый ливневой снег 9/9 540 м
[Cb cap]
-1.1 -2.7 89 -8 -7 1014.0 1012.9 -1.2
09 22.03 С 4 10 км слабый ливневой снег [диам. отлож. мокр. снега 4 мм] 9/9 540 м
[Cb cap]
-1.1 -2.6 90 -7 -6 1014.8 1013.7
12 22.03 С 4 20 км {ливн. осадки} 9/9 500 м
[Sc]
-0.9 -2.8 87 -7 -6 1016.0 1014.9
15 22.03 С 4 4000 м слабая переохл. морось (гололёд) [диам. сложн. отлож. 3 мм] 10/10 400 м
[St]
-1.2 -1.9 95 -7 -7 1017.8 1016.7 -0.7 0.9
18 22.03 СЗ 4 4000 м слабый ливневой снег {морось} [диам. сложн. отлож. 3 мм] 10/10 450 м
[Cb cap]
-1.1 -2.1 93 -7 -7 1019.3 1018.1
21 22.03 СЗ 3 4000 м слабый ливневой снег 10/10 480 м
[Cb cap]
-0.9 -1.9 93 -6 -6 1020.0 1018.8

 

Местоположение метеостанции Малые Дербеты (Калмыкия, Россия): широта 47.93 долгота 44.70 высота над уровнем моря 9 м.

В архиве по умолчанию представлена погода в Малых Дербетах за последнюю неделю. Архивные данные за месяц целиком и за предыдущие месяцы, начиная с января 2011 года, Вы можете получить, выбрав интересующий диапазон дат из раскрывающегося списка и нажав кнопку "Ввод!".

Внимание! Время в таблицах - всемирное. Для получения местного времени необходимо прибавить поправку, которая в Малых Дербетах равна 3 ч.

Смотрите также архив погоды в соседних городах и на ближайших метеорологических станциях:

Погода в Кетченерах (Калмыкия, Россия) (69 км)
Погода в Волгограде город (Волгоградская область, Россия) (84 км)
Погода в Волгограде (Волгоградская область, Россия) (98 км)
Погода в Черный Яр (Астраханская область, Россия) (107 км)
Погода в Котельниково (Волгоградская область, Россия) (121 км)
Погода в Калаче-на-Дону (Волгоградская область, Россия) (123 км)
Погода в Нижнем Чире (Волгоградская область, Россия) (125 км)
Погода в Юсте (Калмыкия, Россия) (151 км)
Погода в Верхнем Баскунчаке (Астраханская область, Россия) (154 км)
Погода в Иловле (Волгоградская область, Россия) (161 км)

Пояснения к столбцам:

Ветер - указаны скорость ветра в м/с - средняя за 10 мин, порывы в срок и между сроками (в фигурных скобках) и направление, откуда дует ветер: С - северный, СВ - северо-восточный, В - восточный, ЮВ - юго-восточный, Ю - южный, ЮЗ - юго-западный, З - западный, СЗ - северо-западный.
Видимость - горизонтальная дальность видимости в метрах или километрах. При видимости от 1 до 10 км при отсутствии осадков обычно наблюдается дымка, при ухудшении видимости до 1 км и менее - туман. В сухую погоду видимость может ухудшаться дымом, пылью или мглою.
Явления - указаны атмосферные явления, наблюдавшиеся в срок или в последний час перед сроком; фигурными скобками обозначены явления, наблюдавшиеся между сроками (за 1-3 часа до срока); квадратными скобками обозначены град или гололедные отложения с указанием их диаметра в мм.
Облачность - указаны через наклонную черту общая и нижняя облачность в баллах и высота нижней границы облаков в метрах; квадратными скобками обозначены формы облаков: Ci - перистые, Cs - перисто-слоистые, Cc - перисто-кучевые, Ac - высококучевые, As - высокослоистые, Sc - слоисто-кучевые, Ns - слоисто-дождевые, Cu - кучевые, Cb - кучево-дождевые. Подробнее классификацию облаков см. в Атласе облаков (PDF).
T - Температура воздуха - температура, измеренная на высоте 2 м над землей.
Td - Температура точки росы - температура, при понижении до которой содержащийся в воздухе водяной пар достигнет насыщения.
f - Относительная влажность воздуха - влажноcть воздуха, измеренная на высоте 2 м над землей.
Te - Эффективная температура - температура, которую ощущает одетый по сезону человек в тени. Характеристика душности погоды. При расчете учитывается влияние влажности воздуха и скорости ветра на теплоощущения человека.
Tes - Эффективная температура на солнце - температура, которую ощущает человек, с поправкой на солнечный нагрев. Характеристика знойности погоды. Зависит от высоты солнца над горизонтом, облачности и скорости ветра. Ночью, в пасмурную погоду, а также при ветре 12 м/с и более поправка равна нулю.
P - Атмосферное давление - приведенное к уровню моря атмосферное давление.
Po - Атмосферное давление - измеренное на уровне метеостанции атмосферное давление.
Tmin - Минимальная температура - минимум температуры воздуха на высоте 2 м над землей.
Tmax - Максимальная температура - максимум температуры воздуха на высоте 2 м над землей.
R - Количество осадков - Количество выпавших осадков, мм. При наведении курсора мыши на число - период времени, за который выпало указанное количество осадков.
S - Снежный покров - Высота снежного покрова, см. При наведении курсора мыши на число - состояние снежного покрова и степень покрытия местности в баллах.